Location: Newark
(58.6000°N, 7.8338°E)
Time: 09:07:26
(UTC+00:00)

OTV 5 (USA 277) - Pass Details

Date: 21 August 2019
Orbit: 295 x 339 km, 54.5° (Epoch: 08 September)

Event Time Altitude Azimuth Distance (km) Brightness Sun altitude
Exits shadow 02:26:02 16° 188° (S) 891 ? -10.9°
Drops below altitude 10° 02:27:18 10° 160° (SSE) 1,169 ? -10.7°
Sets 02:29:37 0° 139° (SE) 1,996 ? -10.5°
